Theta_e
294 293 293 293 292 292 291 291 291 290 290 290 290 290 289 289 289 290 290 290 291 291 292 292 293 294 294 296 296 297 297 297 297 297 297 297 298 298 298 298 298 299
291 291 291 291 291 290 290 290 290 289 289 289 289 289 289 289 289 289 289 289 289 289 289 289 289 290 290 291 292 292 293 294 295 295 296 296 296 297 297 297 297 298
290 290 290 290 289 289 289 289 288 288 288 288 288 288 288 288 288 288 288 288 288 288 288 288 288 288 288 288 288 289 289 290 291 292 292 293 294 295 296 296 296 297
289 289 289 288 288 288 288 288 288 288 288 288 288 288 288 288 288 288 288 288 288 287 287 287 287 287 287 287 287 287 287 287 288 288 288 289 290 291 293 294 295 295
289 289 288 288 288 288 288 288 288 288 288 288 288 288 288 288 288 288 288 288 288 288 287 287 287 287 287 287 287 287 287 287 287 287 287 287 288 288 289 290 291 292
288 288 288 288 288 288 288 288 288 288 288 288 287 287 287 287 287 287 287 288 288 288 287 287 287 287 287 287 287 287 287 287 287 286 286 286 287 287 287 287 288 288
288 288 288 288 288 288 288 288 287 287 287 287 287 287 287 287 287 287 287 287 287 287 287 287 287 287 287 287 287 287 287 287 287 287 287 286 286 286 286 286 286 287
288 288 288 287 287 287 287 287 287 287 287 287 287 286 286 286 286 286 286 286 286 286 286 286 287 287 287 287 287 287 287 287 287 287 287 287 287 287 286 286 286 286
288 287 287 287 287 287 287 287 286 286 286 286 286 286 286 286 286 286 286 286 286 286 286 286 286 286 286 287 287 287 287 287 287 287 286 286 286 286 286 286 286 286
287 287 287 287 287 287 286 286 286 286 286 286 286 286 286 286 286 286 286 286 286 286 286 286 286 286 286 286 286 286 286 286 286 286 286 286 286 286 286 286 286 286
287 287 287 287 287 286 286 286 286 286 286 286 286 286 286 286 286 286 286 286 286 286 286 286 286 286 286 286 286 285 285 285 285 285 285 285 285 285 286 286 286 286
287 287 287 287 286 286 286 286 286 285 285 285 286 286 286 286 286 286 286 286 286 286 286 286 286 286 286 285 285 285 285 284 284 284 284 284 284 285 285 285 285 285
288 287 287 287 287 286 286 286 285 285 285 285 285 285 285 285 286 286 286 286 286 286 286 286 285 285 285 285 284 284 284 284 284 284 284 284 284 284 284 284 284 284
288 287 287 287 286 286 285 285 285 285 285 285 285 285 285 285 285 285 285 286 286 285 285 285 285 285 285 285 284 284 284 284 284 284 284 284 284 284 284 284 284 284
287 287 287 286 286 286 285 285 285 285 285 285 285 285 285 285 285 285 285 285 285 285 285 285 285 285 285 285 284 284 284 283 283 283 283 283 284 284 284 284 284 283
288 287 287 286 286 285 285 285 285 285 285 284 285 285 285 285 285 285 285 284 285 285 285 285 285 285 285 285 284 284 283 283 283 283 283 283 283 283 284 284 284 284
288 288 287 286 286 285 285 285 284 284 284 284 284 284 284 284 284 284 284 284 284 285 285 285 285 285 284 284 284 283 282 282 282 282 283 282 282 282 283 284 284 284
288 288 287 286 285 285 284 284 284 284 284 284 284 284 284 284 284 284 284 284 284 284 284 285 285 284 283 283 283 282 281 280 280 281 282 282 283 282 282 283 283 283
288 287 286 285 284 284 284 284 283 283 283 283 283 283 283 283 284 284 284 284 284 284 284 284 284 283 282 282 281 280 279 278 278 279 280 280 281 281 281 281 281 281
287 286 285 284 284 284 283 283 283 283 283 283 283 283 283 283 284 284 284 284 283 283 283 283 283 282 280 280 279 278 277 276 276 276 276 277 278 279 279 279 279 279
286 285 284 283 283 283 283 282 282 282 282 282 282 283 283 283 283 284 283 283 283 282 282 283 282 280 279 278 277 276 275 274 273 273 273 274 276 276 276 276 277 277
284 283 283 283 283 282 282 282 282 282 282 282 282 283 283 283 283 283 282 282 282 281 280 281 281 279 277 277 275 274 273 272 271 272 272 273 274 274 274 275 275 275
283 283 283 283 282 282 282 282 282 282 282 282 282 282 282 282 282 282 282 281 281 280 279 280 280 278 275 275 274 272 272 271 270 270 270 270 271 271 272 272 273 273
283 283 282 282 282 282 282 281 281 281 282 282 281 282 282 282 281 281 281 279 279 279 277 277 278 277 274 273 273 272 271 270 269 269 268 268 269 269 269 270 270 270
282 282 282 281 281 281 281 281 281 281 281 281 281 281 281 281 280 280 280 278 277 277 276 275 275 275 273 272 272 271 270 269 268 268 268 268 268 268 268 269 269 269
282 282 281 281 281 281 281 281 281 281 281 281 281 280 280 280 279 278 278 277 276 275 274 273 273 273 272 271 271 270 269 268 267 267 267 268 268 268 268 268 268 269
Wind_Speed
8 8 8 9 9 10 11 12 13 13 14 15 15 16 17 17 17 16 16 16 16 16 16 16 17 17 18 18 18 17 17 18 18 20 22 24 26 28 29 30 31 32
9 8 8 8 9 9 10 11 12 13 14 15 15 16 16 17 18 18 18 18 18 18 18 18 19 19 19 19 20 20 20 20 19 19 20 21 22 25 28 30 30 31
8 8 7 7 8 9 9 10 10 11 12 13 14 15 16 17 18 19 19 20 20 20 21 21 21 21 22 22 22 22 22 23 23 22 22 21 20 22 23 26 29 30
8 8 8 7 8 8 8 8 9 10 11 12 13 14 15 16 17 18 19 20 20 21 22 22 23 23 24 24 24 24 24 25 25 26 26 25 23 23 22 22 24 26
7 7 8 8 8 9 9 9 10 11 12 13 13 14 15 16 17 18 19 20 21 22 22 23 23 24 24 25 25 26 26 26 26 27 28 28 27 27 26 25 25 24
7 7 8 9 10 11 11 12 12 13 13 14 14 15 16 16 17 18 19 20 21 23 24 25 25 26 27 28 28 28 28 29 29 29 29 30 30 29 29 29 29 28
7 7 8 9 9 11 12 13 14 15 15 16 16 17 17 18 18 19 20 20 21 22 24 25 27 28 29 30 31 32 32 32 32 32 33 33 33 33 31 31 31 32
8 8 9 10 10 11 12 13 14 15 16 17 17 18 19 20 21 21 22 23 24 25 26 27 28 29 31 32 34 35 36 36 36 37 37 38 37 37 36 34 34 34
10 11 12 13 14 14 15 15 16 16 17 17 18 19 20 21 23 24 26 27 28 29 30 31 33 34 35 36 37 38 40 40 41 41 41 41 41 41 40 39 39 38
11 13 14 15 16 17 17 18 18 18 19 20 20 21 22 23 25 27 29 30 32 33 35 36 37 38 39 40 40 41 42 43 43 43 43 44 44 44 44 43 43 43
13 14 15 16 17 17 18 18 19 20 21 22 23 24 26 27 28 30 32 34 36 37 39 40 41 42 43 43 43 43 43 43 44 44 44 44 45 46 46 45 45 46
14 15 16 17 18 18 18 19 20 21 22 23 25 26 28 30 31 33 35 37 39 41 42 44 44 45 46 46 46 45 45 45 44 44 45 45 45 46 46 47 47 48
16 18 19 19 20 20 20 21 21 22 24 25 27 28 29 31 33 35 37 39 41 43 45 46 47 48 49 49 49 48 47 47 46 46 46 47 47 47 47 48 48 49
20 21 21 22 22 22 23 23 24 25 27 28 29 30 32 34 35 37 39 41 42 44 46 47 48 50 50 50 49 49 49 49 49 49 49 49 49 49 49 49 49 50
23 24 25 25 25 25 25 26 27 28 30 31 32 33 35 36 38 40 42 43 44 45 46 47 48 49 49 48 49 49 50 50 50 50 50 51 51 51 51 51 50 51
26 27 27 27 27 27 27 28 30 31 32 33 34 35 37 38 40 42 43 45 46 47 47 47 48 48 47 47 47 49 50 51 52 52 52 53 54 54 55 54 53 52
28 29 30 29 29 28 29 31 32 34 35 35 36 37 39 40 42 43 45 46 46 47 48 48 48 48 48 48 49 49 49 50 52 54 55 55 56 56 57 58 57 55
30 31 31 31 30 30 31 33 35 36 37 38 38 39 40 41 43 44 45 45 46 47 48 49 50 50 50 51 52 52 51 50 51 54 56 57 58 58 59 60 60 59
31 32 32 31 30 31 33 35 36 37 38 39 40 41 42 43 44 44 45 45 46 47 49 50 52 53 53 54 54 54 53 51 51 55 57 58 59 60 60 60 59 59
32 32 31 30 31 32 35 36 37 38 39 40 41 42 43 44 44 45 45 46 47 49 50 52 54 54 54 55 54 53 52 50 51 53 55 56 59 59 58 58 58 58
31 30 30 31 33 35 37 38 38 39 40 40 41 42 43 44 44 45 46 47 48 50 51 54 55 53 53 53 52 50 48 46 46 49 52 55 59 59 58 57 58 58
30 30 31 32 35 37 38 39 40 40 41 41 42 42 43 44 44 45 47 48 49 50 51 55 55 52 51 51 49 46 44 42 42 45 48 52 55 55 54 54 55 54
30 30 32 35 37 38 39 40 41 41 41 41 42 43 44 45 45 46 47 48 50 50 50 53 55 52 49 48 45 42 40 39 39 41 43 45 47 48 47 48 49 48
30 32 34 36 38 39 39 40 41 41 41 41 42 44 45 45 46 48 48 48 49 49 49 50 53 50 45 44 42 38 35 35 35 37 39 40 42 43 41 42 43 42
31 33 36 37 38 38 39 40 41 41 41 41 42 44 45 46 46 48 49 48 47 48 47 46 48 48 43 39 37 33 30 30 32 36 38 38 40 41 40 38 39 39
33 35 36 37 38 38 39 40 40 40 41 42 43 44 45 46 46 46 48 48 46 46 45 43 44 44 39 35 32 29 26 27 31 34 37 39 40 42 42 42 41 39
Wind_Direction
56 47 38 34 31 29 27 23 21 18 16 16 14 14 14 12 11 8 6 4 0 357 354 351 349 347 344 342 339 337 332 324 316 305 292 282 276 271 268 265 262 261
59 53 46 40 35 31 27 24 19 15 14 13 11 10 9 7 5 3 1 359 357 355 353 350 348 347 345 343 340 338 336 333 331 325 315 306 294 284 278 273 269 265
58 54 49 44 41 37 33 28 21 17 14 10 7 4 2 0 359 358 356 354 353 352 350 349 347 345 342 341 339 338 336 334 332 329 326 325 319 307 297 289 281 275
49 48 46 45 42 37 32 25 16 12 8 3 360 357 354 352 350 349 348 347 347 346 346 345 344 342 340 339 337 335 334 333 331 328 325 325 324 320 317 310 302 293
26 24 22 18 16 13 9 4 359 358 356 353 351 348 345 343 341 339 339 338 338 337 337 337 337 336 335 334 333 332 330 329 328 326 323 322 322 320 319 317 314 310
13 8 5 359 356 353 350 348 346 345 345 344 343 342 341 339 338 336 335 334 334 333 332 332 331 331 330 328 327 327 326 325 324 322 319 318 317 316 316 316 313 312
360 357 355 350 346 343 339 339 337 336 337 337 339 339 338 338 337 337 335 334 332 331 330 329 328 327 326 325 323 323 322 321 320 318 316 315 314 312 312 311 310 309
338 339 338 335 334 333 332 332 332 332 332 332 334 335 335 335 335 333 333 331 330 329 328 326 325 323 322 321 320 319 318 317 316 314 313 311 310 309 308 307 305 304
327 328 329 328 328 329 329 329 329 330 330 329 330 331 331 331 330 329 328 327 327 326 325 324 322 321 320 318 317 316 314 313 312 311 309 307 305 304 304 303 302 300
323 324 324 324 324 325 325 326 327 327 328 328 328 327 327 327 326 325 325 324 324 323 322 321 320 319 318 316 315 313 311 310 309 307 305 304 302 301 299 298 297 296
316 317 317 318 318 319 320 321 322 323 324 324 324 324 324 324 323 323 322 322 321 321 320 319 318 317 316 314 313 310 308 306 305 303 301 300 298 297 296 295 294 292
307 308 309 310 311 314 316 317 318 319 319 320 320 320 321 321 321 321 321 321 320 320 319 318 316 315 314 312 310 308 305 303 301 299 297 296 294 293 292 292 291 290
303 303 304 305 308 311 314 315 315 315 316 317 317 317 318 318 318 318 319 319 318 318 317 316 315 314 313 311 309 307 306 304 301 298 296 294 292 290 289 288 288 287
309 308 308 309 310 312 313 313 313 314 315 315 316 316 316 316 317 317 317 316 316 315 314 314 313 313 312 311 309 309 308 306 304 301 298 296 292 290 287 286 285 284
313 312 312 312 313 313 312 313 313 314 314 314 314 315 315 316 317 316 316 315 314 313 312 312 311 311 310 309 309 308 307 306 304 302 300 298 295 292 289 286 284 282
311 310 310 311 311 311 311 311 312 312 312 312 313 313 314 315 315 315 315 314 313 312 312 311 310 309 308 306 305 304 304 303 301 300 298 297 295 293 290 288 285 283
308 307 308 309 308 308 309 310 310 310 310 311 311 312 313 314 314 314 314 313 312 311 311 309 308 308 307 305 303 302 300 299 297 295 294 293 292 291 290 288 287 284
305 305 306 306 305 306 307 308 308 309 309 309 310 311 312 312 312 312 312 311 310 309 309 308 308 307 306 305 303 302 299 297 295 292 290 288 287 287 286 286 286 285
302 302 303 302 302 303 304 305 306 306 307 308 309 310 310 311 311 311 311 310 309 309 308 308 308 308 306 305 303 301 299 297 294 291 289 287 284 282 282 282 282 283
299 299 300 299 300 302 303 304 305 305 306 307 308 309 310 310 311 310 310 310 309 309 308 308 308 307 306 305 303 301 300 298 294 291 288 286 283 282 281 280 280 280
297 297 297 298 300 302 304 305 305 305 306 307 308 309 309 309 310 310 310 310 309 308 308 309 309 308 307 305 304 303 302 298 294 290 287 285 284 283 282 281 281 281
295 295 296 299 302 304 305 306 307 307 308 308 309 309 309 308 309 309 309 309 310 310 310 310 309 309 308 307 306 305 303 298 294 291 289 288 287 286 285 284 283 283
295 296 299 302 305 306 307 307 308 308 309 309 309 309 308 308 309 310 310 310 311 312 312 311 310 310 310 308 306 304 303 300 297 295 292 291 291 291 290 289 287 286
296 299 303 305 307 308 308 308 308 309 309 309 309 308 308 309 311 311 312 312 313 314 314 312 310 310 310 307 304 304 304 301 299 296 294 294 294 294 293 292 292 292
299 303 306 307 308 308 308 308 308 309 309 309 308 308 309 311 312 313 313 314 315 315 315 313 311 310 309 307 306 307 307 302 298 295 293 291 292 292 292 292 292 292
303 306 308 308 308 308 308 308 309 309 309 309 309 309 311 312 314 314 315 315 316 316 315 314 312 309 309 309 310 311 309 302 295 293 292 292 293 294 294 294 294 293